(248198) = 2005 EH1

Discovered at Kitt Peak on 2005-03-02 by Spacewatch.

Orbit

Orbit type: Main Belt

Note: WebGL enabled browser required.

epoch2023-09-13.0
epoch JD2460200.5
perihelion date2021-03-08.43427
perihelion JD2459281.93427
argument of perihelion (°)340.22057
ascending node (°)175.57566
inclination (°)10.31646
eccentricity0.1809614
perihelion distance (AU)2.5116012
Tisserand w.r.t. Jupiter3.2
ΔV w.r.t. Earth (km/sec)10.4
semimajor axis (AU)3.0665236
mean anomaly (°)168.59497
mean daily motion (°/day)0.18354160
aphelion distance (AU)3.621
period (years)5.37
P-vector [x]-0.91251514
P-vector [y]0.39525407
P-vector [z]0.10531069
Q-vector [x]-0.40880957
Q-vector [y]-0.88994651
Q-vector [z]-0.20216315
absolute magnitude15.74
phase slope0.15
uncertainty0
referenceMPEC 2023-R69
observations used575
oppositions15
arc length (days)8534
first opposition used2000
last opposition used2023
residual rms (arc-secs)0.74
perturbers coarse indicatorM-v
perturbers precise indicator003Ek
first observation date used2000-04-27.0
last observation date used2023-09-08.0
computer nameMPCLINUX
JD of orbit computation2456581.718201
perihelion JD uncertainty (days)1.3644E-04
argument of perihelion uncertainty (°)3.7912E-05
ascending node uncertainty (°)3.1693E-05
inclination uncertainty (°)1.3303E-05
eccentricity uncertainty 1.2547E-07
perihelion distance uncertainty (AU)4.0754E-07
Minimum Orbit Intersection Distances (in AU)
for orbit epoch: 2460200.5, reference: E2023-RH5
Mercury2.14515
Venus1.79926
Earth1.52218
Mars0.86146
Jupiter1.38281
Saturn5.93612
Uranus15.9205
Neptune26.3272

Observations

590 total observations over interval: 2000 04 27.30218 – 2023 09 12.352895
These data are available for download (format description).

Date (UT) J2000 RA J2000 Dec Magn Location Ref
2000 04 27.30218 14 13 55.60 -02 37 12.0 18.9 R 699 – Lowell Observatory-LONEOS MPS 445827
2000 04 27.32118 14 13 54.82 -02 37 04.4   699 – Lowell Observatory-LONEOS MPS 445827
2000 04 27.34016 14 13 53.91 -02 36 55.9   699 – Lowell Observatory-LONEOS MPS 445827
2000 04 27.35915 14 13 52.98 -02 36 48.7   699 – Lowell Observatory-LONEOS MPS 445827
2002 09 05.297780 23 36 45.448 -01 12 58.95 20.90 V 645 – Apache Point-Sloan Digital Sky Survey MPS 259266
2002 09 05.301252 23 36 45.306 -01 13 00.23 21.45   645 – Apache Point-Sloan Digital Sky Survey MPS 259266
2005 03 02.16746 11 10 35.94 +01 58 34.7 19.7 V 691 – Steward Observatory, Kitt Peak-Spacewatch MPS 127233
2005 03 02.22703 11 10 33.48 +01 59 07.1 19.2 V 691 – Steward Observatory, Kitt Peak-Spacewatch MPS 127233
2005 03 02.25320 11 10 32.40 +01 59 21.2 19.7 V 691 – Steward Observatory, Kitt Peak-Spacewatch MPS 127233
2005 03 03.28297 11 09 51.10 +02 08 42.4 19.1 R 683 – Goodricke-Pigott Observatory, Tucson MPS 127233
2005 03 03.29631 11 09 50.51 +02 08 50.7 19.3 R 683 – Goodricke-Pigott Observatory, Tucson MPS 127233
2005 03 03.30131 11 09 50.34 +02 08 52.8 18.1 R 703 – Catalina Sky Survey MPS 128049
2005 03 03.30931 11 09 49.96 +02 08 57.9 18.2 R 703 – Catalina Sky Survey MPS 128049
2005 03 03.30969 11 09 50.01 +02 08 58.1 19.2 R 683 – Goodricke-Pigott Observatory, Tucson MPS 127233
2005 03 03.31742 11 09 49.62 +02 09 02.2 18.2 R 703 – Catalina Sky Survey MPS 128049
2005 03 03.32549 11 09 49.26 +02 09 06.5 18.1 R 703 – Catalina Sky Survey MPS 128049
2005 03 03.34700 11 09 48.38 +02 09 18.0 18.2   704 – Lincoln Laboratory ETS, New Mexico MPS 128049
2005 03 03.36979 11 09 47.46 +02 09 31.5 18.5   704 – Lincoln Laboratory ETS, New Mexico MPS 128049
2005 03 03.38115 11 09 46.95 +02 09 37.5 18.7   704 – Lincoln Laboratory ETS, New Mexico MPS 128049
2005 03 03.39285 11 09 46.46 +02 09 43.6 18.8   704 – Lincoln Laboratory ETS, New Mexico MPS 128049
2005 03 04.27978 11 09 11.02 +02 17 50.8 19.3 R 683 – Goodricke-Pigott Observatory, Tucson MPS 128049
2005 03 04.29312 11 09 10.43 +02 17 57.5 19.3 R 683 – Goodricke-Pigott Observatory, Tucson MPS 128049
2005 03 04.30650 11 09 09.84 +02 18 04.3 19.4 R 683 – Goodricke-Pigott Observatory, Tucson MPS 128049
2005 03 08.25808 11 06 29.77 +02 54 46.4 18.2 R 699 – Lowell Observatory-LONEOS MPS 128049
2005 03 08.27754 11 06 28.96 +02 54 56.6   699 – Lowell Observatory-LONEOS MPS 128049
2005 03 08.29244 11 06 28.28 +02 55 03.9 18.7   704 – Lincoln Laboratory ETS, New Mexico MPS 128049
2005 03 08.29702 11 06 28.12 +02 55 08.3   699 – Lowell Observatory-LONEOS MPS 128049
2005 03 08.30446 11 06 27.77 +02 55 09.8 19.0   704 – Lincoln Laboratory ETS, New Mexico MPS 128049
2005 03 08.31608 11 06 27.31 +02 55 19.2 18.7   704 – Lincoln Laboratory ETS, New Mexico MPS 128049
2005 03 08.31652 11 06 27.29 +02 55 18.9   699 – Lowell Observatory-LONEOS MPS 128049
2005 03 08.32778 11 06 26.78 +02 55 26.4 18.9   704 – Lincoln Laboratory ETS, New Mexico MPS 128049
2005 03 08.33942 11 06 26.27 +02 55 30.2 19.0   704 – Lincoln Laboratory ETS, New Mexico MPS 128049
2005 03 09.26281 11 05 49.13 +03 04 09.3 18.1 R 699 – Lowell Observatory-LONEOS MPS 128049
2005 03 09.28226 11 05 48.30 +03 04 20.6   699 – Lowell Observatory-LONEOS MPS 128049
2005 03 09.30168 11 05 47.44 +03 04 30.3   699 – Lowell Observatory-LONEOS MPS 128049
2005 03 09.32114 11 05 46.69 +03 04 41.8   699 – Lowell Observatory-LONEOS MPS 128049
2005 03 11.30212 11 04 26.97 +03 23 14.0 18.7   704 – Lincoln Laboratory ETS, New Mexico MPS 129155
2005 03 11.31590 11 04 26.34 +03 23 22.1 19.2   704 – Lincoln Laboratory ETS, New Mexico MPS 129155
2005 03 11.32846 11 04 25.87 +03 23 29.2 18.9   704 – Lincoln Laboratory ETS, New Mexico MPS 129155
2005 03 11.34157 11 04 25.34 +03 23 37.2 18.8   704 – Lincoln Laboratory ETS, New Mexico MPS 129155
2005 03 11.35563 11 04 24.70 +03 23 45.1 18.9   704 – Lincoln Laboratory ETS, New Mexico MPS 129155
2005 03 14.27073 11 02 29.97 +03 50 54.2 19.2   704 – Lincoln Laboratory ETS, New Mexico MPS 129155
2005 03 14.28158 11 02 29.49 +03 51 00.2 19.3   704 – Lincoln Laboratory ETS, New Mexico MPS 129155
2005 03 14.29307 11 02 29.04 +03 51 05.8 19.1   704 – Lincoln Laboratory ETS, New Mexico MPS 129155
2005 03 14.30391 11 02 28.60 +03 51 12.1 19.0   704 – Lincoln Laboratory ETS, New Mexico MPS 129155
2005 03 14.31533 11 02 28.11 +03 51 19.0 19.3   704 – Lincoln Laboratory ETS, New Mexico MPS 129155
2005 03 17.22555 11 00 37.59 +04 18 05.5 19.2   704 – Lincoln Laboratory ETS, New Mexico MPS 129155
2005 03 17.23615 11 00 37.15 +04 18 11.1 19.8   704 – Lincoln Laboratory ETS, New Mexico MPS 129155
2005 03 17.24727 11 00 36.70 +04 18 17.2 19.4   704 – Lincoln Laboratory ETS, New Mexico MPS 129155
2005 03 17.25847 11 00 36.23 +04 18 23.4 19.6   704 – Lincoln Laboratory ETS, New Mexico MPS 129155
2005 03 17.26912 11 00 35.82 +04 18 28.5 19.3   704 – Lincoln Laboratory ETS, New Mexico MPS 129155
2005 04 04.28939 10 51 55.15 +06 44 41.4 19.7   704 – Lincoln Laboratory ETS, New Mexico MPS 130792
2005 04 04.29956 10 51 54.86 +06 44 44.9 19.9   704 – Lincoln Laboratory ETS, New Mexico MPS 130792
2005 04 04.30972 10 51 54.63 +06 44 49.0 20.3   704 – Lincoln Laboratory ETS, New Mexico MPS 130792
2005 04 04.31992 10 51 54.44 +06 44 53.5 19.6   704 – Lincoln Laboratory ETS, New Mexico MPS 130792
2005 04 04.33007 10 51 54.22 +06 44 58.9 19.9   704 – Lincoln Laboratory ETS, New Mexico MPS 130792
2005 04 10.16395 10 50 29.93 +07 21 25.8 19.7 V 691 – Steward Observatory, Kitt Peak-Spacewatch MPS 131729
2005 04 10.18053 10 50 29.72 +07 21 31.4 19.6 V 691 – Steward Observatory, Kitt Peak-Spacewatch MPS 131729
2005 04 10.19710 10 50 29.53 +07 21 37.1 19.7 V 691 – Steward Observatory, Kitt Peak-Spacewatch MPS 131729
2005 05 11.14817 10 56 37.28 +08 44 06.9 18.9 R G96 – Mt. Lemmon Survey MPS 134007
2005 05 11.15558 10 56 37.52 +08 44 06.8 18.9 R G96 – Mt. Lemmon Survey MPS 134007
2005 05 11.16300 10 56 37.74 +08 44 07.2 18.9 R G96 – Mt. Lemmon Survey MPS 134007
2005 05 11.17044 10 56 37.98 +08 44 06.9 18.1 R G96 – Mt. Lemmon Survey MPS 134007
2008 09 25.35235 02 14 03.34 +06 11 29.6 21.0 V 691 – Steward Observatory, Kitt Peak-Spacewatch MPS 259266
2008 09 25.36995 02 14 02.79 +06 11 24.0 20.8 V 691 – Steward Observatory, Kitt Peak-Spacewatch MPS 259266
2008 09 25.38756 02 14 02.31 +06 11 17.6 20.7 V 691 – Steward Observatory, Kitt Peak-Spacewatch MPS 259266
2008 09 29.30156 02 12 06.23 +05 48 07.0   691 – Steward Observatory, Kitt Peak-Spacewatch MPS 259266
2008 09 29.31912 02 12 05.66 +05 48 00.4   691 – Steward Observatory, Kitt Peak-Spacewatch MPS 259266
2008 09 29.33667 02 12 05.08 +05 47 53.7   691 – Steward Observatory, Kitt Peak-Spacewatch MPS 259266
2008 09 29.38875 02 12 03.39 +05 47 35.3   291 – LPL/Spacewatch II MPS 259266
2008 09 29.39248 02 12 03.28 +05 47 33.7   291 – LPL/Spacewatch II MPS 259266
2008 09 29.39629 02 12 03.15 +05 47 32.4   291 – LPL/Spacewatch II MPS 259266
2008 10 21.35434 01 57 42.55 +03 28 42.2 20.4 V G96 – Mt. Lemmon Survey MPS 260600
2008 10 21.35957 01 57 42.33 +03 28 40.4 20.1 V G96 – Mt. Lemmon Survey MPS 260600
2008 10 21.36478 01 57 42.08 +03 28 38.4 20.2 V G96 – Mt. Lemmon Survey MPS 260600
2008 10 21.36997 01 57 41.86 +03 28 36.5 20.3 V G96 – Mt. Lemmon Survey MPS 260600
2010 01 10.27418 07 59 16.43 +06 15 28.2 19.1   704 – Lincoln Laboratory ETS, New Mexico MPS 310184
2010 01 10.28698 07 59 15.76 +06 15 30.3 19.3   704 – Lincoln Laboratory ETS, New Mexico MPS 310184
2010 01 10.29980 07 59 15.13 +06 15 33.3 19.8   704 – Lincoln Laboratory ETS, New Mexico MPS 310184
2010 01 10.31260 07 59 14.46 +06 15 35.1 19.7   704 – Lincoln Laboratory ETS, New Mexico MPS 310184
2010 01 10.32542 07 59 13.90 +06 15 37.0 19.6   704 – Lincoln Laboratory ETS, New Mexico MPS 310184
2010 01 16.26860 07 54 26.41 +06 37 08.5 18.8   704 – Lincoln Laboratory ETS, New Mexico MPS 311174
2010 01 16.28328 07 54 25.70 +06 37 11.8 19.4   704 – Lincoln Laboratory ETS, New Mexico MPS 311174
2010 01 16.29577 07 54 25.02 +06 37 14.9 19.6   704 – Lincoln Laboratory ETS, New Mexico MPS 311174
2010 01 16.30823 07 54 24.44 +06 37 18.2 19.7   704 – Lincoln Laboratory ETS, New Mexico MPS 311174
